Find Starlink 36697

NORAD ID: 67698 Int'l Des: 2026-025 Owner: SPXS Country: US Constellation: starlink operational
LEOCIRCULARRETROGRADE

現在のビュー

3D地球を読み込み中...

Starlink 36697について

説明を読み込み中...

次回通過

Passes for default location (London). Set your location on the main map for personalized predictions.

高度履歴

Loading altitude history...

軌道要素

1 67698U 26025F 26149.80004214 .00034150 00000-0 10557-2 0 9995
2 67698 97.2861 261.3546 0000639 354.0164 6.1071 15.33434486 18442
Epoch: May 29, 2026 • Age: 20 hours

現在のステータス

高度 478.5 km
速度 7.62 km/s
衛星直下点 -33.61°S, 34.67°W
打ち上げ日 Feb 7, 2026
運用期間 0.3 years
タイプ internet

技術仕様

分類 Payload
質量 575.00 kg
乾燥質量 530.00 kg
総質量 575.00 kg
長さ 0.30 m
直径 4.10 m
スパン 29.00 m
形状 Box + pan
製造者 SPXS
バスタイプ Starlink V2MO
フェーズステータス In Orbit
所有者/国 SPXS/US

Most Searched